Fryeburg, ME

10:08 AM EST on December 18, 2017 (GMT -0500)
Eastern Slopes Regional

Weather History for KIZG - September, 2012

Change the Weather History Date:

Wednesday, September 12, 2012

  Actual Average Record
Temperature  
Mean Temperature 58 °F -  
Max Temperature 79 °F 72 °F 91 °F (2013)
Min Temperature 39 °F 45 °F 30 °F (2006)
Degree Days  
Heating Degree Days 6    
Growing Degree Days 8 (Base 50)    
Moisture  
Dew Point 45 °F    
Average Humidity 89    
Maximum Humidity 100    
Minimum Humidity 42    
Precipitation  
Precipitation 0.00 in - - ()
Sea Level Pressure  
Sea Level Pressure 30.31 in    
Wind  
Wind Speed 0 mph (SW)    
Max Wind Speed 8 mph    
Max Gust Speed -    
Visibility 4 miles    
Events Fog    
Averages and records for this station are not official NWS values.
T = Trace of Precipitation, MM = Missing Value Source: NWS Daily Summary

Daily Weather History Graph

Daily Weather History Graph

Search for Another Location

Airport or City:

Trip Planner

Search our weather history database for the weather conditions in past years. The results will help you decide how hot, cold, wet, or windy it might be!

Date:

Astronomy

Sep. 12, 2012 Rise Set
Actual Time 6:20 AM EDT 6:58 PM EDT
Civil Twilight 5:50 AM EDT 7:27 PM EDT
Nautical Twilight 5:16 AM EDT 8:02 PM EDT
Astronomical Twilight 4:40 AM EDT 8:37 PM EDT
Moon 2:27 AM EDT (9/12) 4:49 PM EDT (9/12)
Length of Visible Light 13h 36m
Length of Day
12h 38m
Waning Crescent, 14% of the Moon is Illuminated
Sep 12
Waning Crescent
Sep 15
New
Sep 22
First Quarter
Sep 29
Full
Oct 8
Last Quarter

Hourly Weather History & Observations

Time (EDT) Temp. Windchill Dew Point Humidity Pressure Visibility Wind Dir Wind Speed Gust Speed Precip Events Conditions
12:00 AM 44.6 °F - 42.8 °F 93% 30.26 in 1.8 mi Calm Calm - N/A   Clear
12:48 AM 44.6 °F - 42.8 °F 93% 30.26 in 0.2 mi Calm Calm - N/A Fog Fog
12:49 AM 44.1 °F - 43.0 °F 96% 30.27 in 0.2 mi Calm Calm - N/A Fog Fog
12:57 AM 42.8 °F - 42.8 °F 100% 30.27 in 0.5 mi Calm Calm - N/A Fog Fog
1:28 AM 42.8 °F - 42.8 °F 100% 30.27 in 1.2 mi Calm Calm - N/A   Partly Cloudy
1:33 AM 42.8 °F - 42.8 °F 100% 30.27 in 2.0 mi Calm Calm - N/A   Partly Cloudy
1:54 AM 42.1 °F - 42.1 °F 100% 30.29 in 1.8 mi Calm Calm - N/A   Partly Cloudy
1:56 AM 42.8 °F - 42.8 °F 100% 30.28 in 0.8 mi Calm Calm - N/A   Mist
2:07 AM 42.8 °F - 42.8 °F 100% 30.28 in 1.2 mi Calm Calm - N/A   Partly Cloudy
2:11 AM 42.8 °F - 42.8 °F 100% 30.28 in 2.0 mi Calm Calm - N/A   Partly Cloudy
2:14 AM 42.8 °F - 41.0 °F 93% 30.28 in 1.2 mi Calm Calm - N/A   Partly Cloudy
2:23 AM 42.8 °F - 41.0 °F 93% 30.28 in 2.0 mi Calm Calm - N/A   Partly Cloudy
2:30 AM 42.8 °F - 42.8 °F 100% 30.28 in 10.0 mi Calm Calm - N/A   Clear
2:44 AM 42.8 °F - 42.8 °F 100% 30.29 in 1.5 mi Calm Calm - N/A   Partly Cloudy
2:50 AM 42.8 °F - 42.8 °F 100% 30.28 in 1.0 mi Calm Calm - N/A   Mist
2:54 AM 42.1 °F - 41.0 °F 96% 30.29 in 0.8 mi Calm Calm - N/A   Mist
3:22 AM 42.8 °F - 41.0 °F 93% 30.29 in 1.2 mi Calm Calm - N/A   Scattered Clouds
3:25 AM 42.8 °F - 41.0 °F 93% 30.29 in 2.0 mi Calm Calm - N/A   Partly Cloudy
3:32 AM 41.0 °F - 41.0 °F 100% 30.29 in 10.0 mi Calm Calm - N/A   Partly Cloudy
3:54 AM 41.0 °F - 41.0 °F 100% 30.30 in 1.2 mi Calm Calm - N/A   Partly Cloudy
4:09 AM 41.0 °F - 39.2 °F 93% 30.30 in 0.8 mi Calm Calm - N/A   Mist
4:30 AM 42.8 °F - 41.0 °F 93% 30.30 in 1.2 mi Calm Calm - N/A   Scattered Clouds
4:32 AM 41.0 °F - 41.0 °F 100% 30.30 in 2.5 mi Calm Calm - N/A   Scattered Clouds
4:39 AM 39.2 °F - 39.2 °F 100% 30.30 in 1.0 mi Calm Calm - N/A   Mist
4:43 AM 41.0 °F 39.0 °F 39.2 °F 93% 30.31 in 0.2 mi WNW 3.5 mph - N/A Fog Fog
4:54 AM 39.9 °F - 39.9 °F 100% 30.32 in 0.2 mi Calm Calm - N/A Fog Fog
5:01 AM 39.2 °F - 39.2 °F 100% 30.31 in 0.8 mi Calm Calm - N/A   Mist
5:06 AM 41.0 °F - 39.2 °F 93% 30.31 in 1.2 mi Calm Calm - N/A   Scattered Clouds
5:10 AM 41.0 °F - 39.2 °F 93% 30.31 in 2.0 mi Calm Calm - N/A   Partly Cloudy
5:25 AM 41.0 °F - 39.2 °F 93% 30.31 in 1.2 mi Calm Calm - N/A   Partly Cloudy
5:29 AM 39.2 °F - 39.2 °F 100% 30.31 in 0.8 mi Calm Calm - N/A   Mist
5:48 AM 39.2 °F - 39.2 °F 100% 30.31 in 1.5 mi Calm Calm - N/A   Scattered Clouds
5:50 AM 39.2 °F - 39.2 °F 100% 30.31 in 5.0 mi Calm Calm - N/A   Scattered Clouds
5:54 AM 39.9 °F - 39.9 °F 100% 30.32 in 7.0 mi Calm Calm - N/A   Partly Cloudy
6:12 AM 41.0 °F - 39.2 °F 93% 30.32 in 1.0 mi Calm Calm - N/A   Mist
6:54 AM 42.1 °F - 42.1 °F 100% 30.35 in 0.2 mi Calm Calm - N/A Fog Fog
7:32 AM 46.4 °F - 46.4 °F 100% 30.34 in 1.0 mi Calm Calm - N/A   Mist
7:34 AM 46.4 °F - 46.4 °F 100% 30.34 in 2.5 mi Calm Calm - N/A   Mostly Cloudy
7:38 AM 46.4 °F - 44.6 °F 93% 30.34 in 9.0 mi Calm Calm - N/A   Scattered Clouds
7:54 AM 48.0 °F - 46.9 °F 96% 30.35 in 10.0 mi Calm Calm - N/A   Clear
8:54 AM 55.9 °F - 50.0 °F 80% 30.35 in 10.0 mi Calm Calm - 0.00 in   Clear
9:54 AM 63.0 °F - 52.0 °F 67% 30.36 in 10.0 mi Calm Calm - N/A   Clear
10:54 AM 68.0 °F - 53.1 °F 59% 30.35 in 10.0 mi Calm Calm - N/A   Clear
11:54 AM 72.0 °F - 55.0 °F 55% 30.34 in 10.0 mi Calm Calm - N/A   Clear
12:54 PM 77.0 °F - 52.0 °F 42% 30.33 in 10.0 mi South 6.9 mph - N/A   Clear
1:54 PM 78.1 °F - 53.1 °F 42% 30.32 in 10.0 mi Variable 5.8 mph - N/A   Clear
2:54 PM 77.0 °F - 52.0 °F 42% 30.31 in 10.0 mi WSW 5.8 mph - N/A   Clear
3:54 PM 75.9 °F - 53.1 °F 45% 30.30 in 10.0 mi SW 8.1 mph - N/A   Clear
4:54 PM 75.0 °F - 53.1 °F 46% 30.29 in 10.0 mi Variable 3.5 mph - N/A   Clear
5:54 PM 72.0 °F - 55.0 °F 55% 30.30 in 10.0 mi Calm Calm - N/A   Clear
6:54 PM 63.0 °F - 57.9 °F 84% 30.30 in 10.0 mi Calm Calm - N/A   Clear
7:54 PM 61.0 °F - 55.0 °F 81% 30.31 in 10.0 mi SW 3.5 mph - N/A   Clear
9:54 PM 54.0 °F - 53.1 °F 97% 30.33 in 10.0 mi SSW 3.5 mph - 0.00 in   Clear
10:54 PM 52.0 °F - 51.1 °F 97% 30.33 in 10.0 mi Calm Calm - N/A   Clear
11:54 PM 51.1 °F - 50.0 °F 96% 30.32 in 10.0 mi Calm Calm - N/A   Clear